ENT21B EPWA-LTAI

Flight info

Callsign ENT21B
Flight time N/A
Altitude 33000
Route DCT EVINA DCT KOTEK/N0456F350 DCT KENIN DCT UPAMA DCT ADORU UL606 CRD UL854 KOZLU DCT
Aircraft B738/M-SDE2E3FGHIRWXY/LB1

Departure

Time 2026-05-04 11:58
Airport Warsaw Chopin Airport (EPWA)

Arrival

Time N/A
Airport Antalya International Airport (LTAI)
Time Latitude Longitude Altitude Speed Heading
2026-05-04 11:12 52.17967 20.96131 338 ft 0 kts 167°
2026-05-04 11:41 52.17988 20.96125 334 ft 4 kts 180°
2026-05-04 11:42 52.18011 20.96134 337 ft 4 kts 231°
2026-05-04 11:42 52.18016 20.96150 333 ft 0 kts 258°
2026-05-04 11:48 52.18014 20.96136 338 ft 3 kts 258°
2026-05-04 11:49 52.18008 20.96087 338 ft 6 kts 258°
2026-05-04 11:49 52.17995 20.96014 335 ft 7 kts 245°
2026-05-04 11:49 52.17972 20.95945 336 ft 7 kts 239°
2026-05-04 11:49 52.17930 20.95927 335 ft 7 kts 162°
2026-05-04 11:50 52.17878 20.95971 337 ft 9 kts 152°
2026-05-04 11:50 52.17814 20.96026 337 ft 12 kts 152°
2026-05-04 11:50 52.17737 20.96093 337 ft 13 kts 152°
2026-05-04 11:50 52.17655 20.96166 335 ft 14 kts 151°
2026-05-04 11:51 52.17574 20.96236 336 ft 13 kts 152°
2026-05-04 11:51 52.17496 20.96306 337 ft 13 kts 152°
2026-05-04 11:51 52.17417 20.96373 336 ft 13 kts 152°
2026-05-04 11:51 52.17335 20.96446 336 ft 14 kts 152°
2026-05-04 11:52 52.17244 20.96525 338 ft 15 kts 152°
2026-05-04 11:52 52.17154 20.96604 337 ft 14 kts 152°
2026-05-04 11:52 52.17067 20.96679 338 ft 14 kts 152°
2026-05-04 11:52 52.16986 20.96750 336 ft 13 kts 152°
2026-05-04 11:53 52.16907 20.96819 337 ft 13 kts 152°
2026-05-04 11:53 52.16828 20.96887 338 ft 13 kts 152°
2026-05-04 11:53 52.16747 20.96959 335 ft 13 kts 152°
2026-05-04 11:53 52.16679 20.97021 335 ft 10 kts 140°
2026-05-04 11:55 52.16411 20.97953 335 ft 14 kts 114°
2026-05-04 11:55 52.16370 20.98095 336 ft 13 kts 115°
2026-05-04 11:56 52.16333 20.98230 335 ft 13 kts 115°
2026-05-04 11:56 52.16290 20.98337 334 ft 10 kts 153°
2026-05-04 11:56 52.16222 20.98313 336 ft 10 kts 204°
2026-05-04 11:56 52.16167 20.98249 333 ft 10 kts 238°
2026-05-04 11:57 52.16173 20.98146 336 ft 9 kts 293°
2026-05-04 11:57 52.16197 20.98058 337 ft 9 kts 294°
2026-05-04 11:57 52.16239 20.97907 336 ft 33 kts 295°
2026-05-04 11:57 52.16442 20.97185 336 ft 106 kts 294°
2026-05-04 11:58 52.16835 20.95779 336 ft 165 kts 294°
2026-05-04 11:58 52.17353 20.93926 720 ft 192 kts 290°
2026-05-04 11:58 52.17910 20.91933 1620 ft 190 kts 291°
2026-05-04 11:58 52.18377 20.89982 2512 ft 189 kts 274°
2026-05-04 11:59 52.18110 20.87795 3011 ft 205 kts 253°
2026-05-04 11:59 52.17699 20.85460 3404 ft 227 kts 254°
2026-05-04 11:59 52.17303 20.82839 3747 ft 247 kts 258°
2026-05-04 11:59 52.16948 20.80056 4556 ft 253 kts 257°
2026-05-04 12:00 52.16555 20.77283 5577 ft 251 kts 257°
2026-05-04 12:00 52.16156 20.74454 5809 ft 259 kts 257°
2026-05-04 12:00 52.15592 20.71667 6474 ft 263 kts 242°
2026-05-04 12:00 52.14434 20.69376 7342 ft 264 kts 222°
2026-05-04 12:01 52.12992 20.67477 8238 ft 267 kts 220°
2026-05-04 12:01 52.11529 20.65649 9021 ft 272 kts 219°
2026-05-04 12:02 52.01177 20.52694 11827 ft 356 kts 219°
2026-05-04 12:03 51.99217 20.50230 12632 ft 357 kts 219°
2026-05-04 12:03 51.97244 20.47749 13408 ft 358 kts 219°
2026-05-04 12:03 51.95185 20.45430 14041 ft 365 kts 209°
2026-05-04 12:03 51.92762 20.44086 14669 ft 373 kts 193°
2026-05-04 12:04 51.90171 20.43597 15316 ft 377 kts 188°
2026-05-04 12:04 51.87538 20.43236 15907 ft 381 kts 188°
2026-05-04 12:04 51.84874 20.42887 16482 ft 385 kts 188°
2026-05-04 12:04 51.82195 20.42523 17085 ft 388 kts 188°
2026-05-04 12:05 51.79531 20.42142 17683 ft 391 kts 189°
2026-05-04 12:05 51.76812 20.41740 18267 ft 394 kts 189°
2026-05-04 12:05 51.74077 20.41326 18743 ft 397 kts 189°
2026-05-04 12:05 51.71310 20.40905 19211 ft 401 kts 188°
2026-05-04 12:06 51.68518 20.40479 19713 ft 404 kts 188°
2026-05-04 12:06 51.65700 20.40054 20183 ft 408 kts 188°
2026-05-04 12:06 51.62857 20.39626 20631 ft 412 kts 188°
2026-05-04 12:06 51.59990 20.39194 21108 ft 415 kts 188°
2026-05-04 12:07 51.57102 20.38756 21572 ft 418 kts 188°
2026-05-04 12:07 51.54196 20.38316 22017 ft 421 kts 188°
2026-05-04 12:07 51.51263 20.37873 22445 ft 424 kts 188°
2026-05-04 12:07 51.48315 20.37430 22888 ft 427 kts 188°
2026-05-04 12:08 51.45347 20.36985 23323 ft 430 kts 188°
2026-05-04 12:08 51.42357 20.36535 23730 ft 433 kts 188°
2026-05-04 12:08 51.39385 20.36091 24094 ft 435 kts 188°
2026-05-04 12:08 51.36360 20.35639 24448 ft 437 kts 187°
2026-05-04 12:09 51.33319 20.35185 24785 ft 440 kts 187°
2026-05-04 12:09 51.30257 20.34729 25132 ft 442 kts 187°
2026-05-04 12:09 51.27186 20.34272 25455 ft 445 kts 187°
2026-05-04 12:09 51.24095 20.33813 25760 ft 447 kts 187°
2026-05-04 12:10 51.20987 20.33351 26079 ft 449 kts 187°
2026-05-04 12:10 51.17862 20.32889 26392 ft 452 kts 187°
2026-05-04 12:10 51.14725 20.32425 26674 ft 454 kts 187°
2026-05-04 12:10 51.11573 20.31959 26974 ft 456 kts 187°
2026-05-04 12:11 51.08445 20.31497 27241 ft 459 kts 187°
2026-05-04 12:11 51.05250 20.31026 27513 ft 461 kts 187°
2026-05-04 12:11 51.02042 20.30555 27788 ft 464 kts 187°
2026-05-04 12:11 50.98826 20.30084 28098 ft 465 kts 187°
2026-05-04 12:12 50.95604 20.29612 28465 ft 464 kts 187°
2026-05-04 12:12 50.92390 20.29141 28879 ft 463 kts 187°
2026-05-04 12:12 50.89175 20.28670 29260 ft 463 kts 187°
2026-05-04 12:12 50.85958 20.28200 29592 ft 464 kts 187°
2026-05-04 12:13 50.82739 20.27729 29948 ft 464 kts 187°
2026-05-04 12:14 50.60468 20.28194 32106 ft 467 kts 157°
2026-05-04 12:15 50.57536 20.30387 32386 ft 467 kts 155°
2026-05-04 12:15 50.54629 20.32670 32650 ft 467 kts 154°
2026-05-04 12:15 50.51727 20.34973 32937 ft 467 kts 154°
2026-05-04 12:15 50.48822 20.37267 33015 ft 469 kts 154°
2026-05-04 12:16 50.42977 20.41814 33025 ft 468 kts 155°
2026-05-04 12:16 50.37134 20.46293 33022 ft 466 kts 155°
2026-05-04 12:17 50.31306 20.50729 33026 ft 465 kts 155°
2026-05-04 12:17 50.25494 20.55140 33036 ft 464 kts 155°
2026-05-04 12:18 50.19718 20.59513 33021 ft 464 kts 155°
2026-05-04 12:18 50.13894 20.63913 33034 ft 465 kts 155°
2026-05-04 12:19 50.08063 20.68306 33037 ft 466 kts 155°
2026-05-04 12:19 50.02202 20.72709 33016 ft 468 kts 155°
2026-05-04 12:20 49.96374 20.77078 33027 ft 469 kts 154°
2026-05-04 12:20 49.90481 20.81481 33037 ft 470 kts 154°
2026-05-04 12:21 49.84566 20.85890 33028 ft 472 kts 154°
2026-05-04 12:21 49.78634 20.90299 33028 ft 472 kts 154°
2026-05-04 12:22 49.72744 20.94664 33035 ft 473 kts 154°
2026-05-04 12:22 49.66811 20.99050 33032 ft 473 kts 154°
2026-05-04 12:23 49.60868 21.03432 33042 ft 473 kts 154°
2026-05-04 12:23 49.54928 21.07799 33031 ft 472 kts 154°
2026-05-04 12:24 49.48983 21.12158 33034 ft 472 kts 154°
2026-05-04 12:24 49.43052 21.16495 33042 ft 471 kts 154°
2026-05-04 12:25 49.37133 21.20812 33042 ft 471 kts 154°
2026-05-04 12:25 49.31252 21.25090 33055 ft 471 kts 154°
2026-05-04 12:26 49.25316 21.29396 33049 ft 472 kts 154°
2026-05-04 12:26 49.20344 21.32994 33043 ft 472 kts 154°
2026-05-04 12:27 49.14444 21.37253 33060 ft 472 kts 154°
2026-05-04 12:27 49.08496 21.41535 33068 ft 473 kts 154°
2026-05-04 12:28 49.02526 21.45823 33066 ft 473 kts 154°
2026-05-04 12:28 48.96554 21.50098 33069 ft 474 kts 154°
2026-05-04 12:29 48.90610 21.54344 33070 ft 474 kts 154°
2026-05-04 12:29 48.84617 21.58613 33082 ft 474 kts 154°
2026-05-04 12:30 48.78681 21.62830 33086 ft 473 kts 154°
2026-05-04 12:30 48.72720 21.67054 33092 ft 473 kts 154°
2026-05-04 12:31 48.66767 21.71262 33082 ft 472 kts 154°
2026-05-04 12:31 48.60817 21.75457 33083 ft 471 kts 154°
2026-05-04 12:32 48.51946 21.81690 33085 ft 470 kts 154°
2026-05-04 12:33 48.46024 21.85838 33088 ft 469 kts 154°
2026-05-04 12:33 48.40098 21.89980 33084 ft 469 kts 154°
2026-05-04 12:34 48.34201 21.94193 33089 ft 469 kts 152°
2026-05-04 12:34 48.28449 21.98820 33088 ft 469 kts 150°
2026-05-04 12:35 48.22729 22.03547 33090 ft 469 kts 150°
2026-05-04 12:35 48.16990 22.08237 33089 ft 470 kts 150°
2026-05-04 12:36 48.11225 22.12895 33093 ft 470 kts 150°
2026-05-04 12:36 48.05457 22.17528 33090 ft 471 kts 150°
2026-05-04 12:37 47.99716 22.22125 33093 ft 471 kts 150°
2026-05-04 12:37 47.93937 22.26744 33092 ft 471 kts 150°
2026-05-04 12:38 47.88154 22.31354 33098 ft 471 kts 150°
2026-05-04 12:38 47.82363 22.35960 33092 ft 471 kts 150°
2026-05-04 12:39 47.76580 22.40547 33099 ft 471 kts 150°
2026-05-04 12:39 47.70798 22.45122 33100 ft 471 kts 150°
2026-05-04 12:40 47.65047 22.49661 33100 ft 471 kts 150°
2026-05-04 12:40 47.59259 22.54218 33103 ft 471 kts 150°
2026-05-04 12:41 47.53470 22.58764 33101 ft 471 kts 150°
2026-05-04 12:41 47.47671 22.63307 33110 ft 471 kts 150°
2026-05-04 12:42 47.41866 22.67842 33103 ft 472 kts 150°
2026-05-04 12:42 47.36056 22.72371 33100 ft 472 kts 150°
2026-05-04 12:43 47.30237 22.76894 33108 ft 473 kts 150°
2026-05-04 12:43 47.24408 22.81414 33106 ft 473 kts 150°
2026-05-04 12:44 47.18622 22.85890 33105 ft 473 kts 150°
2026-05-04 12:44 47.12786 22.90393 33102 ft 473 kts 150°
2026-05-04 12:45 47.06951 22.94884 33106 ft 473 kts 150°
2026-05-04 12:45 47.01122 22.99360 33106 ft 473 kts 150°
2026-05-04 12:46 46.95290 23.03827 33101 ft 472 kts 150°
2026-05-04 12:46 46.89467 23.08275 33106 ft 472 kts 150°
2026-05-04 12:47 46.83643 23.12714 33106 ft 471 kts 150°
2026-05-04 12:47 46.77857 23.17112 33106 ft 471 kts 150°
2026-05-04 12:48 46.72039 23.21525 33103 ft 470 kts 151°
2026-05-04 12:48 46.66235 23.25915 33094 ft 470 kts 151°
2026-05-04 12:49 46.60433 23.30294 33100 ft 469 kts 151°
2026-05-04 12:49 46.54672 23.34632 33099 ft 469 kts 151°
2026-05-04 12:50 46.48881 23.38981 33082 ft 469 kts 151°
2026-05-04 12:50 46.43082 23.43326 33083 ft 468 kts 151°
2026-05-04 12:51 46.37286 23.47657 33079 ft 468 kts 151°
2026-05-04 12:51 46.31500 23.51971 33083 ft 467 kts 151°
2026-05-04 12:52 46.25724 23.56267 33063 ft 466 kts 151°
2026-05-04 12:52 46.19991 23.60522 33065 ft 466 kts 151°
2026-05-04 12:53 46.14227 23.64790 33080 ft 466 kts 151°
2026-05-04 12:53 46.08451 23.69056 33071 ft 466 kts 151°
2026-05-04 12:54 46.02683 23.73306 33067 ft 466 kts 151°
2026-05-04 12:54 45.96913 23.77548 33084 ft 466 kts 151°
2026-05-04 12:55 45.91138 23.81783 33090 ft 466 kts 152°
2026-05-04 12:55 45.85358 23.86012 33095 ft 465 kts 151°
2026-05-04 12:56 45.79590 23.90222 33093 ft 465 kts 151°
2026-05-04 12:56 45.73865 23.94391 33103 ft 464 kts 152°
2026-05-04 12:57 45.68116 23.98570 33106 ft 463 kts 152°
2026-05-04 12:57 45.62370 24.02736 33098 ft 462 kts 152°
2026-05-04 12:58 45.56638 24.06881 33091 ft 460 kts 152°
2026-05-04 12:58 45.50967 24.10973 33080 ft 458 kts 153°
2026-05-04 12:59 45.45283 24.15064 33067 ft 456 kts 153°
2026-05-04 12:59 45.39635 24.19120 33056 ft 454 kts 153°
2026-05-04 13:00 45.34013 24.23149 33057 ft 451 kts 154°
2026-05-04 13:00 45.28399 24.27164 33051 ft 449 kts 154°
2026-05-04 13:01 45.22852 24.31121 33039 ft 448 kts 154°
2026-05-04 13:01 45.17293 24.35078 33033 ft 446 kts 154°
2026-05-04 13:02 45.11737 24.39025 33035 ft 446 kts 154°
2026-05-04 13:02 45.06177 24.42965 33034 ft 446 kts 154°
2026-05-04 13:03 45.00626 24.46892 33019 ft 446 kts 154°
2026-05-04 13:03 44.95071 24.50811 33019 ft 446 kts 154°
2026-05-04 13:04 44.89513 24.54724 33023 ft 446 kts 154°
2026-05-04 13:04 44.83987 24.58608 33023 ft 447 kts 154°
2026-05-04 13:05 44.78422 24.62507 33021 ft 447 kts 154°
2026-05-04 13:05 44.72844 24.66411 33028 ft 447 kts 154°
2026-05-04 13:06 44.67266 24.70305 33033 ft 447 kts 154°
2026-05-04 13:06 44.61690 24.74189 33025 ft 447 kts 154°
2026-05-04 13:07 44.56115 24.78064 33033 ft 447 kts 154°
2026-05-04 13:07 44.50550 24.81924 33029 ft 446 kts 154°
2026-05-04 13:08 44.44979 24.85780 33034 ft 446 kts 154°
2026-05-04 13:08 44.39444 24.89603 33039 ft 446 kts 154°
2026-05-04 13:09 44.33875 24.93441 33049 ft 446 kts 154°
2026-05-04 13:09 44.28300 24.97274 33046 ft 446 kts 154°
2026-05-04 13:10 44.22730 25.01096 33039 ft 446 kts 153°
2026-05-04 13:10 44.17196 25.04887 33043 ft 446 kts 153°
2026-05-04 13:11 44.11625 25.08693 33064 ft 445 kts 153°
2026-05-04 13:11 44.06051 25.12494 33046 ft 446 kts 153°
2026-05-04 13:12 44.00486 25.16282 33052 ft 446 kts 153°
2026-05-04 13:12 43.95855 25.19427 33050 ft 445 kts 153°
2026-05-04 13:13 43.90273 25.23211 33055 ft 445 kts 153°
2026-05-04 13:13 43.84702 25.26980 33062 ft 446 kts 153°
2026-05-04 13:14 43.79123 25.30747 33058 ft 446 kts 153°
2026-05-04 13:14 43.73554 25.34499 33057 ft 445 kts 153°
2026-05-04 13:15 43.67984 25.38245 33060 ft 445 kts 153°
2026-05-04 13:15 43.62409 25.41986 33057 ft 445 kts 153°
2026-05-04 13:16 43.56880 25.45710 33060 ft 445 kts 153°
2026-05-04 13:16 43.51303 25.49473 33055 ft 445 kts 152°
2026-05-04 13:17 43.45740 25.53220 33063 ft 445 kts 152°
2026-05-04 13:17 43.40178 25.56957 33061 ft 445 kts 152°
2026-05-04 13:18 43.34645 25.60666 33066 ft 445 kts 152°
2026-05-04 13:18 43.29080 25.64388 33075 ft 445 kts 152°
2026-05-04 13:19 43.23504 25.68110 33077 ft 444 kts 152°
2026-05-04 13:19 43.17944 25.71814 33078 ft 444 kts 152°
2026-05-04 13:20 43.12415 25.75490 33082 ft 444 kts 152°
2026-05-04 13:20 43.06850 25.79182 33082 ft 444 kts 152°
2026-05-04 13:21 43.01280 25.82871 33069 ft 444 kts 152°
2026-05-04 13:21 42.95709 25.86551 33062 ft 444 kts 152°
2026-05-04 13:22 42.90116 25.90240 33386 ft 447 kts 152°
2026-05-04 13:22 42.87329 25.92074 33834 ft 442 kts 151°
2026-05-04 13:22 42.84570 25.93887 34236 ft 439 kts 151°
2026-05-04 13:22 42.81820 25.95694 34460 ft 439 kts 151°
2026-05-04 13:23 42.79062 25.97506 34610 ft 441 kts 151°
2026-05-04 13:23 42.76292 25.99324 34776 ft 443 kts 151°
2026-05-04 13:23 42.73547 26.01123 34974 ft 443 kts 151°
2026-05-04 13:24 42.67973 26.04771 35049 ft 448 kts 152°
2026-05-04 13:24 42.62352 26.08440 35048 ft 448 kts 152°
2026-05-04 13:25 42.53938 26.13918 35044 ft 446 kts 152°
2026-05-04 13:25 42.48350 26.17547 35047 ft 445 kts 152°
2026-05-04 13:26 42.42773 26.21162 35045 ft 444 kts 152°
2026-05-04 13:26 42.37202 26.24768 35044 ft 444 kts 151°
2026-05-04 13:27 42.31623 26.28371 35048 ft 444 kts 151°
2026-05-04 13:27 42.26035 26.31973 35044 ft 446 kts 151°
2026-05-04 13:28 42.20454 26.35563 35045 ft 447 kts 151°
2026-05-04 13:28 42.14816 26.39182 35037 ft 449 kts 151°